Weather History for Clarksburg, WV

Change the Weather History Date:

Saturday, February 16, 2013

  Actual Average Record
Temperature  
Mean Temperature 26 °F -  
Max Temperature 30 °F 45 °F 73 °F (1954)
Min Temperature 21 °F 24 °F -12 °F (1930)
Degree Days  
Heating Degree Days 38    
Moisture  
Dew Point 20 °F    
Average Humidity 77    
Maximum Humidity 93    
Minimum Humidity 58    
Precipitation  
Precipitation 0.01 in - - ()
Sea Level Pressure  
Sea Level Pressure 29.99 in    
Wind  
Wind Speed 5 mph (NW)    
Max Wind Speed 14 mph    
Max Gust Speed 18 mph    
Visibility 7 miles    
Events Snow    
Averages and records for this station are not official NWS values.
T = Trace of Precipitation, MM = Missing Value Source: NWS Daily Summary

Daily Weather History Graph

Daily Weather History Graph

Search for Another Location

Airport:

Trip Planner

Search our weather history database for the weather conditions in past years. The results will help you decide how hot, cold, wet, or windy it might be!

Date:

Astronomy

Feb. 16, 2013 Rise Set
Actual Time 7:11 AM EST 5:59 PM EST
Civil Twilight 6:43 AM EST 6:26 PM EST
Nautical Twilight 6:12 AM EST 6:58 PM EST
Astronomical Twilight 5:41 AM EST 7:29 PM EST
Moon 10:25 AM EST (2/16) No Moon Set
Length of Visible Light 11h 42m
Length of Day
10h 48m
Waxing Crescent, 39% of the Moon is Illuminated
Feb 16
Waxing Crescent
Feb 17
First Quarter
Feb 25
Full
Mar 4
Last Quarter
Mar 11
New

Hourly Weather History & Observations

Time (EST) Temp. Windchill Dew Point Humidity Pressure Visibility Wind Dir Wind Speed Gust Speed Precip Events Conditions
12:09 AM 30.2 °F 24.3 °F 26.6 °F 86% 30.03 in 10.0 mi West 5.8 mph - N/A   Mostly Cloudy
12:44 AM 30.2 °F 26.7 °F 26.6 °F 86% 30.02 in 10.0 mi West 3.5 mph - N/A   Mostly Cloudy
12:53 AM 30.0 °F 25.2 °F 27.0 °F 88% 30.05 in 10.0 mi WSW 4.6 mph - N/A   Mostly Cloudy
1:00 AM 30.2 °F 25.4 °F 26.6 °F 86% 30.03 in 10.0 mi WSW 4.6 mph - N/A   Mostly Cloudy
1:39 AM 28.4 °F 24.6 °F 26.6 °F 93% 30.01 in 10.0 mi SSW 3.5 mph - N/A   Mostly Cloudy
1:53 AM 28.9 °F - 26.1 °F 89% 30.03 in 10.0 mi Calm Calm - N/A   Mostly Cloudy
2:48 AM 28.4 °F 23.3 °F 26.6 °F 93% 30.00 in 2.5 mi WNW 4.6 mph - 0.00 in Snow Light Snow
2:53 AM 28.9 °F 21.1 °F 26.1 °F 89% 30.02 in 1.8 mi NNW 8.1 mph - 0.00 in Snow Light Snow
3:02 AM 28.4 °F 17.5 °F 24.8 °F 86% 30.00 in 1.5 mi NNW 13.8 mph 18.4 mph 0.00 in Snow Light Snow
3:24 AM 26.6 °F 18.2 °F 23.0 °F 86% 30.00 in 1.8 mi North 8.1 mph - 0.00 in Snow Light Snow
3:42 AM 26.6 °F 20.0 °F 23.0 °F 86% 30.00 in 2.0 mi North 5.8 mph - 0.00 in Snow Light Snow
3:53 AM 27.0 °F 19.5 °F 21.9 °F 81% 30.02 in 4.0 mi NNW 6.9 mph - 0.00 in Snow Light Snow
3:59 AM 26.6 °F 19.1 °F 21.2 °F 80% 30.00 in 8.0 mi North 6.9 mph - 0.00 in Snow Light Snow
4:09 AM 26.6 °F 18.2 °F 21.2 °F 80% 30.00 in 8.0 mi NNW 8.1 mph - 0.00 in Snow Light Snow
4:19 AM 26.6 °F 20.0 °F 21.2 °F 80% 30.00 in 9.0 mi NNW 5.8 mph - 0.00 in Snow Light Snow
4:30 AM 26.6 °F 19.1 °F 19.4 °F 74% 30.01 in 10.0 mi NNW 6.9 mph - 0.00 in   Overcast
4:45 AM 26.6 °F 19.1 °F 19.4 °F 74% 30.01 in 10.0 mi NNW 6.9 mph - 0.00 in   Overcast
4:53 AM 26.1 °F 17.6 °F 19.9 °F 78% 30.03 in 10.0 mi NNW 8.1 mph - 0.00 in   Overcast
5:53 AM 25.0 °F 18.1 °F 17.1 °F 72% 30.03 in 10.0 mi North 5.8 mph - N/A   Mostly Cloudy
6:53 AM 23.0 °F 15.8 °F 17.1 °F 78% 30.03 in 10.0 mi NNW 5.8 mph - N/A   Scattered Clouds
7:53 AM 25.0 °F - 18.0 °F 75% 30.04 in 10.0 mi Calm Calm - N/A   Overcast
8:53 AM 26.1 °F 21.9 °F 18.0 °F 71% 30.04 in 10.0 mi NNW 3.5 mph - N/A   Overcast
9:53 AM 26.1 °F 21.9 °F 18.0 °F 71% 30.03 in 9.0 mi North 3.5 mph - N/A   Overcast
10:09 AM 26.6 °F 22.6 °F 17.6 °F 69% 30.00 in 8.0 mi NNE 3.5 mph - N/A   Overcast
10:53 AM 26.1 °F 21.9 °F 16.0 °F 66% 30.01 in 5.0 mi NW 3.5 mph - 0.00 in Snow Light Snow
11:53 AM 27.0 °F - 17.1 °F 66% 29.99 in 9.0 mi Calm Calm - 0.00 in   Overcast
12:53 PM 28.9 °F 21.9 °F 19.0 °F 67% 29.97 in 10.0 mi WNW 6.9 mph - N/A   Overcast
1:53 PM 28.9 °F 21.1 °F 17.1 °F 61% 29.95 in 10.0 mi NW 8.1 mph - 0.00 in   Overcast
2:53 PM 28.9 °F 21.1 °F 16.0 °F 58% 29.95 in 10.0 mi WNW 8.1 mph - N/A   Overcast
3:53 PM 28.9 °F 21.9 °F 16.0 °F 58% 29.96 in 10.0 mi West 6.9 mph - N/A   Overcast
4:53 PM 28.0 °F 20.0 °F 17.1 °F 63% 29.96 in 5.0 mi West 8.1 mph - 0.00 in Snow Light Snow
5:53 PM 27.0 °F 23.0 °F 17.1 °F 66% 29.96 in 10.0 mi West 3.5 mph - 0.00 in   Overcast
6:53 PM 26.1 °F 20.5 °F 15.1 °F 63% 29.97 in 10.0 mi WNW 4.6 mph - N/A   Mostly Cloudy
7:53 PM 25.0 °F - 14.0 °F 63% 29.96 in 10.0 mi Calm Calm - N/A   Partly Cloudy
8:53 PM 24.1 °F - 14.0 °F 65% 29.95 in 10.0 mi Calm Calm - N/A   Clear
9:53 PM 23.0 °F 18.4 °F 14.0 °F 68% 29.95 in 10.0 mi West 3.5 mph - N/A   Overcast
10:38 PM 23.0 °F 14.7 °F 17.6 °F 80% 29.93 in 2.5 mi WNW 6.9 mph - 0.00 in Snow Light Snow
10:48 PM 23.0 °F 14.7 °F 19.4 °F 86% 29.92 in 1.8 mi WNW 6.9 mph - 0.00 in Snow Light Snow
10:53 PM 23.0 °F 14.7 °F 19.0 °F 85% 29.95 in 2.5 mi WNW 6.9 mph - 0.00 in Snow Light Snow
11:28 PM 23.0 °F 15.8 °F 19.4 °F 86% 29.92 in 1.0 mi West 5.8 mph - 0.01 in Snow Light Snow
11:40 PM 23.0 °F 13.1 °F 17.6 °F 80% 29.92 in 0.8 mi NW 9.2 mph - 0.01 in Snow Light Snow
11:53 PM 21.9 °F 11.7 °F 19.0 °F 89% 29.94 in 1.2 mi WNW 9.2 mph - 0.01 in Snow Light Snow